| time (UTC) | temp F | wind direction | speed knots | gust knots | rain 1hr in | rain 24hr in | rain mn in | humidity % | barometer mb |
| 20260508001521 | 66 | 252 | 4.3 | 7.8 | 0.00 | 0.00 | 0.00 | 48 | 1009.3 |
| 20260508000019 | 67 | 257 | 5.2 | 13.0 | 0.00 | 0.00 | 0.00 | 47 | 1009.4 |
| 20260507234519 | 68 | 253 | 5.2 | 10.4 | 0.00 | 0.00 | 0.00 | 47 | 1009.6 |
| 20260507233017 | 68 | 264 | 4.3 | 12.2 | 0.00 | 0.00 | 0.00 | 48 | 1009.8 |
| 20260507231516 | 66 | 214 | 3.5 | 7.0 | 0.00 | 0.00 | 0.00 | 50 | 1009.9 |
| 20260507230019 | 66 | 284 | 5.2 | 10.4 | 0.00 | 0.00 | 0.00 | 47 | 1010.1 |
| 20260507224517 | 67 | 259 | 3.5 | 11.3 | 0.00 | 0.00 | 0.00 | 48 | 1010.0 |
| 20260507223013 | 68 | 236 | 7.0 | 11.3 | 0.00 | 0.00 | 0.00 | 47 | 1010.1 |
| 20260507221512 | 69 | 250 | 5.2 | 13.9 | 0.00 | 0.00 | 0.00 | 44 | 1010.2 |
| 20260507220010 | 69 | 244 | 7.8 | 12.2 | 0.00 | 0.00 | 0.00 | 45 | 1010.2 |
| 20260507214508 | 69 | 183 | 4.3 | 13.9 | 0.00 | 0.00 | 0.00 | 47 | 1010.2 |
| 20260507213005 | 69 | 260 | 7.0 | 16.5 | 0.00 | 0.00 | 0.00 | 45 | 1010.3 |
| 20260507211503 | 68 | 244 | 7.0 | 16.5 | 0.00 | 0.00 | 0.00 | 48 | 1010.4 |
| 20260507210105 | 67 | 252 | 6.1 | 14.8 | 0.00 | 0.00 | 0.00 | 45 | 1010.6 |
| 20260507204601 | 67 | 265 | 9.6 | 15.6 | 0.00 | 0.00 | 0.00 | 46 | 1010.7 |
| 20260507203100 | 67 | 277 | 10.4 | 16.5 | 0.00 | 0.00 | 0.00 | 44 | 1011.0 |
| 20260507201555 | 67 | 232 | 7.8 | 16.5 | 0.00 | 0.00 | 0.00 | 45 | 1011.1 |
| 20260507200051 | 67 | 278 | 7.8 | 13.0 | 0.00 | 0.00 | 0.00 | 46 | 1011.4 |
| 20260507194550 | 67 | 281 | 5.2 | 13.0 | 0.00 | 0.00 | 0.00 | 50 | 1011.7 |
| 20260507193046 | 66 | 255 | 9.6 | 20.0 | 0.00 | 0.00 | 0.00 | 47 | 1012.0 |
| 20260507191544 | 66 | 259 | 8.7 | 15.6 | 0.00 | 0.00 | 0.00 | 48 | 1012.2 |
| 20260507190042 | 65 | 260 | 7.0 | 13.0 | 0.00 | 0.00 | 0.00 | 49 | 1012.3 |
| 20260507184540 | 65 | 281 | 7.0 | 20.9 | 0.00 | 0.00 | 0.00 | 51 | 1012.3 |
| 20260507183046 | 65 | 245 | 7.0 | 13.0 | 0.00 | 0.00 | 0.00 | 50 | 1012.5 |
| 20260507181540 | 64 | 263 | 7.0 | 16.5 | 0.00 | 0.00 | 0.00 | 52 | 1012.5 |
| 20260507180035 | 63 | 264 | 4.3 | 13.9 | 0.00 | 0.00 | 0.00 | 53 | 1012.8 |
| 20260507174529 | 63 | 236 | 7.0 | 12.2 | 0.00 | 0.00 | 0.00 | 53 | 1013.0 |
| 20260507173027 | 62 | 267 | 7.8 | 15.6 | 0.00 | 0.00 | 0.00 | 53 | 1013.4 |
| 20260507171525 | 62 | 240 | 7.8 | 14.8 | 0.00 | 0.00 | 0.00 | 55 | 1013.5 |
| 20260507170023 | 62 | 245 | 6.1 | 15.6 | 0.00 | 0.00 | 0.00 | 54 | 1013.7 |
| 20260507164522 | 63 | 281 | 5.2 | 12.2 | 0.00 | 0.00 | 0.00 | 53 | 1013.9 |
| 20260507163019 | 62 | 288 | 7.8 | 13.9 | 0.00 | 0.00 | 0.00 | 54 | 1014.2 |
| 20260507161526 | 61 | 246 | 7.0 | 15.6 | 0.00 | 0.00 | 0.00 | 54 | 1014.2 |
| 20260507160036 | 62 | 288 | 7.8 | 19.1 | 0.00 | 0.00 | 0.00 | 54 | 1014.3 |
| 20260507154516 | 62 | 202 | 6.1 | 13.9 | 0.00 | 0.00 | 0.00 | 56 | 1014.3 |
| 20260507153011 | 61 | 250 | 7.0 | 13.9 | 0.00 | 0.00 | 0.00 | 58 | 1014.4 |
| 20260507151508 | 60 | 253 | 7.0 | 13.9 | 0.00 | 0.00 | 0.00 | 60 | 1014.4 |
| 20260507150006 | 59 | 278 | 4.3 | 15.6 | 0.00 | 0.00 | 0.00 | 61 | 1014.6 |
| 20260507144501 | 58 | 248 | 7.0 | 13.9 | 0.00 | 0.00 | 0.00 | 62 | 1014.6 |
| 20260507143058 | 57 | 238 | 4.3 | 12.2 | 0.00 | 0.00 | 0.00 | 65 | 1014.6 |
| 20260507141553 | 55 | 264 | 4.3 | 9.6 | 0.00 | 0.00 | 0.00 | 67 | 1014.7 |
| 20260507134545 | 52 | 247 | 3.5 | 8.7 | 0.00 | 0.00 | 0.00 | 71 | 1015.2 |
| 20260507133040 | 51 | 275 | 4.3 | 7.8 | 0.00 | 0.00 | 0.00 | 74 | 1015.3 |
| 20260507131537 | 48 | 237 | 1.7 | 7.8 | 0.00 | 0.00 | 0.00 | 80 | 1015.5 |
| 20260507130031 | 46 | 227 | 2.6 | 7.0 | 0.00 | 0.00 | 0.00 | 83 | 1015.5 |
| 20260507124544 | 44 | 224 | 0.9 | 4.3 | 0.00 | 0.00 | 0.00 | 85 | 1015.5 |
| 20260507123027 | 41 | 293 | 0.0 | 0.0 | 0.00 | 0.00 | 0.00 | 84 | 1015.4 |
| 20260507121525 | 40 | 327 | 0.0 | 0.0 | 0.00 | 0.00 | 0.00 | 82 | 1015.3 |
| 20260507120023 | 40 | 346 | 0.0 | 0.0 | 0.00 | 0.00 | 0.00 | 80 | 1015.2 |
| 20260507114528 | 40 | 346 | 0.0 | 0.0 | 0.00 | 0.00 | 0.00 | 79 | 1015.2 |
| 20260507113023 | 40 | 347 | 0.0 | 0.0 | 0.00 | 0.00 | 0.00 | 79 | 1015.0 |
| 20260507111521 | 40 | 346 | 0.0 | 0.0 | 0.00 | 0.00 | 0.00 | 78 | 1015.0 |
| 20260507110028 | 40 | 346 | 0.0 | 0.0 | 0.00 | 0.00 | 0.00 | 79 | 1015.0 |
| 20260507104520 | 40 | 346 | 0.0 | 0.0 | 0.00 | 0.00 | 0.00 | 79 | 1015.1 |
| 20260507103017 | 40 | 347 | 0.0 | 0.9 | 0.00 | 0.00 | 0.00 | 80 | 1015.1 |
| 20260507101516 | 40 | 347 | 0.0 | 0.0 | 0.00 | 0.00 | 0.00 | 75 | 1015.3 |
| 20260507100021 | 40 | 347 | 0.0 | 0.0 | 0.00 | 0.00 | 0.00 | 73 | 1015.5 |
| 20260507094512 | 40 | 347 | 0.0 | 0.0 | 0.00 | 0.00 | 0.00 | 73 | 1015.3 |
| 20260507093018 | 41 | 347 | 0.0 | 0.0 | 0.00 | 0.00 | 0.00 | 72 | 1015.4 |
| 20260507091510 | 41 | 347 | 0.0 | 0.0 | 0.00 | 0.00 | 0.00 | 72 | 1015.4 |
| 20260507090008 | 42 | 347 | 0.0 | 0.0 | 0.00 | 0.00 | 0.00 | 72 | 1015.3 |
| 20260507084508 | 42 | 347 | 0.0 | 0.0 | 0.00 | 0.00 | 0.00 | 72 | 1015.2 |
| 20260507083003 | 43 | 347 | 0.0 | 0.0 | 0.00 | 0.00 | 0.00 | 71 | 1015.4 |
| 20260507081505 | 43 | 347 | 0.0 | 0.0 | 0.00 | 0.00 | 0.00 | 72 | 1015.4 |
| 20260507080001 | 44 | 347 | 0.0 | 0.0 | 0.00 | 0.00 | 0.00 | 72 | 1015.4 |
| 20260507074612 | 44 | 347 | 0.0 | 0.0 | 0.00 | 0.00 | 0.00 | 72 | 1015.5 |
| 20260507073058 | 44 | 347 | 0.0 | 0.0 | 0.00 | 0.00 | 0.00 | 73 | 1015.6 |
| 20260507071557 | 44 | 347 | 0.0 | 0.0 | 0.00 | 0.00 | 0.00 | 72 | 1015.7 |
| 20260507070109 | 44 | 347 | 0.0 | 0.0 | 0.00 | 0.00 | 0.00 | 73 | 1015.9 |
| 20260507064554 | 43 | 347 | 0.0 | 0.0 | 0.00 | 0.01 | 0.00 | 71 | 1016.0 |
| 20260507063057 | 43 | 347 | 0.0 | 0.0 | 0.00 | 0.01 | 0.00 | 69 | 1016.0 |
| 20260507061549 | 43 | 347 | 0.0 | 0.0 | 0.00 | 0.01 | 0.00 | 68 | 1016.1 |
| 20260507060049 | 43 | 347 | 0.0 | 0.0 | 0.00 | 0.01 | 0.00 | 68 | 1016.2 |
| 20260507054550 | 43 | 347 | 0.0 | 0.0 | 0.00 | 0.01 | 0.00 | 69 | 1016.2 |
| 20260507053044 | 43 | 347 | 0.0 | 0.9 | 0.00 | 0.01 | 0.00 | 68 | 1016.2 |
| 20260507051543 | 43 | 338 | 0.0 | 0.0 | 0.00 | 0.01 | 0.00 | 66 | 1016.2 |
| 20260507050039 | 43 | 338 | 0.0 | 0.0 | 0.00 | 0.01 | 0.00 | 64 | 1016.2 |
| 20260507044542 | 43 | 338 | 0.0 | 0.0 | 0.00 | 0.01 | 0.01 | 64 | 1016.2 |
| 20260507043039 | 43 | 338 | 0.0 | 0.0 | 0.00 | 0.01 | 0.01 | 65 | 1016.3 |
| 20260507041535 | 44 | 338 | 0.0 | 0.0 | 0.00 | 0.01 | 0.01 | 61 | 1016.2 |
| 20260507040034 | 44 | 338 | 0.0 | 0.0 | 0.00 | 0.01 | 0.01 | 61 | 1016.3 |
| 20260507034537 | 45 | 338 | 0.0 | 0.0 | 0.00 | 0.01 | 0.01 | 60 | 1016.3 |
| 20260507033032 | 46 | 338 | 0.0 | 0.0 | 0.00 | 0.01 | 0.01 | 60 | 1016.3 |
| 20260507031531 | 46 | 338 | 0.0 | 0.0 | 0.00 | 0.01 | 0.01 | 59 | 1016.3 |
| 20260507030032 | 47 | 338 | 0.0 | 0.0 | 0.00 | 0.01 | 0.01 | 58 | 1016.3 |
| 20260507024530 | 48 | 338 | 0.0 | 0.0 | 0.00 | 0.01 | 0.01 | 56 | 1016.2 |
| 20260507023030 | 49 | 338 | 0.0 | 0.0 | 0.00 | 0.01 | 0.01 | 54 | 1016.1 |
| 20260507021531 | 51 | 338 | 0.0 | 0.0 | 0.00 | 0.01 | 0.01 | 51 | 1016.0 |
| 20260507020040 | 53 | 338 | 0.0 | 0.0 | 0.00 | 0.01 | 0.01 | 50 | 1015.8 |
| 20260507014529 | 54 | 338 | 0.0 | 0.0 | 0.00 | 0.01 | 0.01 | 48 | 1015.6 |
| 20260507013045 | 56 | 338 | 0.0 | 0.0 | 0.00 | 0.01 | 0.01 | 43 | 1015.6 |
| 20260507011528 | 57 | 338 | 0.0 | 0.0 | 0.00 | 0.01 | 0.01 | 41 | 1015.5 |
| 20260507010035 | 58 | 338 | 0.0 | 0.0 | 0.00 | 0.01 | 0.01 | 39 | 1015.3 |
| 20260507004527 | 59 | 337 | 0.0 | 1.7 | 0.00 | 0.01 | 0.01 | 38 | 1015.3 |
| 20260507003027 | 59 | 224 | 0.0 | 5.2 | 0.00 | 0.01 | 0.01 | 38 | 1015.2 |